Regional Weather Roundup
Issued by NWS

Home | Current Version | Previous Version | Graphics & Text | Print | Product List | Glossary Off
Versions: 1 2 3 4 5 6 7 8 9 10 11 12 13 14 15 16 17 18 19 20 21 22 23 24 25 26 27 28 29 30 31 32 33 34 35 36 37 38 39 40 41 42 43 44 45 46 47 48 49 50

000
ASUS43 KLSX 110610
RWRMO

WEATHER SUMMARY FOR MISSOURI
NATIONAL WEATHER SERVICE SPRINGFIELD MO
1200 AM CST SUN DEC 11 2016

NOTE: "FAIR" INDICATES FEW OR NO CLOUDS BELOW 12,000 FEET WITH NO
       SIGNIFICANT WEATHER AND/OR OBSTRUCTIONS TO VISIBILITY.
       CURRENT SKY AND/OR WEATHER CONDITIONS ARE NOT AVAILABLE FOR
       CHILLICOTHE AND FARMINGTON.

MOZ001>031-035>038-043-044-053-054-110700-
...NORTHERN AND WESTERN MISSOURI...

CITY           SKY/WX    TMP DP  RH WIND       PRES   REMARKS
KANSAS CTY INT CLOUDY    38  21  50 S14       29.93F WCI  30
6HR MIN TEMP:  36; 6HR MAX TEMP:  38;

KANSAS C DTWN  CLOUDY    41  23  48 S7        29.96F
6HR MIN TEMP:  38; 6HR MAX TEMP:  41;

LEE`S SUMMIT   CLOUDY    38  22  52 SE13      29.96F WCI  30
6HR MIN TEMP:  36; 6HR MAX TEMP:  38;

ST JOSEPH      CLOUDY    36  20  52 S9        29.95F WCI  29
6HR MIN TEMP:  34; 6HR MAX TEMP:  36;

CHILLICOTHE      N/A     35  19  52 SE10      30.01F WCI  27
6HR MIN TEMP:  32; 6HR MAX TEMP:  35;

KIRKSVILLE     CLOUDY    32  19  58 SE12      30.05F WCI  23
6HR MIN TEMP:  30; 6HR MAX TEMP:  32;


$$
MOZ066>068-077>081-088>096-101>105-110700-
...SOUTHWEST MISSOURI...

CITY           SKY/WX    TMP DP  RH WIND       PRES   REMARKS
SPRINGFIELD    CLOUDY    38  20  48 S16       30.04F WCI  29
6HR MIN TEMP:  36; 6HR MAX TEMP:  38;

JOPLIN         CLOUDY    44  26  49 S17       30.01F
6HR MIN TEMP:  43; 6HR MAX TEMP:  44;

BRANSON        CLOUDY    39  23  52 SE10G18   30.08F

$$
MOZ032>034-039>042-045>050-055>058-069>072-110700-
...CENTRAL MISSOURI...

CITY           SKY/WX    TMP DP  RH WIND       PRES   REMARKS
COLUMBIA       CLOUDY    35  16  45 S13       30.09F WCI  26
6HR MIN TEMP:  34; 6HR MAX TEMP:  35;

JEFFERSON CITY CLOUDY    37  17  44 SE8       30.12F
6HR MIN TEMP:  35; 6HR MAX TEMP:  37;

ROLLA          CLOUDY    34  19  54 S15G22    30.09F WCI  24
6HR MIN TEMP:  33; 6HR MAX TEMP:  34;

SEDALIA        CLOUDY    38  19  46 S15       30.05F WCI  29
6HR MIN TEMP:  37; 6HR MAX TEMP:  38;

WHITEMAN AFB   CLOUDY    37  20  49 S12       30.00F WCI  30
WARRENSBURG    CLOUDY    36  21  55 SE10      30.01F WCI  28
OSAGE BEACH    CLOUDY    37  20  50 S12G17    30.10F WCI  29

$$
MOZ051-052-059>065-110700-
...EAST CENTRAL MISSOURI...

CITY           SKY/WX    TMP DP  RH WIND       PRES   REMARKS
ST LOUIS INTL  CLOUDY    37  18  46 S9        30.19R
6HR MIN TEMP:  34; 6HR MAX TEMP:  37;

SPIRIT OF STL  CLOUDY    37  17  44 S6        30.18S
6HR MIN TEMP:  34; 6HR MAX TEMP:  37;

ST CHARLES     CLOUDY    35  21  56 SE13      30.18F WCI  26
6HR MIN TEMP:  33; 6HR MAX TEMP:  36;


$$
MOZ072>076-082>087-097>100-106>115-110700-
...SOUTH CENTRAL AND SOUTHEAST MISSOURI...

CITY           SKY/WX    TMP DP  RH WIND       PRES   REMARKS
CAPE GIRARDEAU CLOUDY    35  22  58 SE10      30.26F WCI  27
6HR MIN TEMP:  35; 6HR MAX TEMP:  36;

FARMINGTON     CLOUDY    35  19  52 S14       30.19F WCI  26
6HR MIN TEMP:  32; 6HR MAX TEMP:  35;

POPLAR BLUFF   CLOUDY    38  24  57 S7        30.25F
6HR MIN TEMP:  35; 6HR MAX TEMP:  38;

WEST PLAINS    CLOUDY    36  22  56 S15G23    30.15F WCI  27
6HR MIN TEMP:  32; 6HR MAX TEMP:  36;


$$



USA.gov is the U.S. government's official web portal to all federal, state and local government web resources and services.